Time,TemperatureF,DewpointF,PressureIn,WindDirection,WindDirectionDegrees,WindSpeedMPH,WindSpeedGustMPH,Humidity,HourlyPrecipIn,Conditions,Clouds,dailyrainin,SoftwareType,DateUTC
2017-09-26 00:11:00,78.1,68.0,29.81,SSE,161,6.0,-999.0,71,-99.99,,,0.00,weatherlink.com 1.10,2017-09-26 05:11:00,
2017-09-26 00:26:00,78.0,68.0,29.81,SE,146,9.0,-999.0,71,-99.99,,,0.00,weatherlink.com 1.10,2017-09-26 05:26:00,
2017-09-26 00:41:00,77.9,68.0,29.81,South,191,8.0,-999.0,71,-99.99,,,0.00,weatherlink.com 1.10,2017-09-26 05:41:00,
2017-09-26 00:56:00,77.8,68.0,29.81,South,171,6.0,-999.0,71,-99.99,,,0.00,weatherlink.com 1.10,2017-09-26 05:56:00,
2017-09-26 01:11:00,77.5,67.0,29.81,South,172,9.0,-999.0,71,-99.99,,,0.00,weatherlink.com 1.10,2017-09-26 06:11:00,
2017-09-26 01:26:00,77.5,67.0,29.82,SSE,155,9.0,-999.0,71,-99.99,,,0.00,weatherlink.com 1.10,2017-09-26 06:26:00,
2017-09-26 01:41:00,77.3,68.0,29.82,South,170,7.0,-999.0,72,-99.99,,,0.00,weatherlink.com 1.10,2017-09-26 06:41:00,
2017-09-26 01:56:00,77.1,67.0,29.82,SSE,163,9.0,-999.0,72,-99.99,,,0.00,weatherlink.com 1.10,2017-09-26 06:56:00,
2017-09-26 02:11:00,76.9,68.0,29.82,South,174,6.0,-999.0,73,-99.99,,,0.00,weatherlink.com 1.10,2017-09-26 07:11:00,
2017-09-26 02:26:00,76.8,68.0,29.82,South,175,5.0,-999.0,73,-99.99,,,0.00,weatherlink.com 1.10,2017-09-26 07:26:00,
2017-09-26 02:41:00,76.7,68.0,29.82,SSE,152,8.0,-999.0,74,-99.99,,,0.00,weatherlink.com 1.10,2017-09-26 07:41:00,
2017-09-26 02:56:00,76.6,68.0,29.82,SSE,162,6.0,-999.0,74,-99.99,,,0.00,weatherlink.com 1.10,2017-09-26 07:56:00,
2017-09-26 03:26:00,76.4,68.0,29.83,SSE,153,6.0,-999.0,75,-99.99,,,0.00,weatherlink.com 1.10,2017-09-26 08:26:00,
2017-09-26 03:41:00,76.2,68.0,29.82,SE,136,8.0,-999.0,76,-99.99,,,0.00,weatherlink.com 1.10,2017-09-26 08:41:00,
2017-09-26 03:56:00,76.0,68.0,29.83,SSE,148,5.0,-999.0,76,-99.99,,,0.00,weatherlink.com 1.10,2017-09-26 08:56:00,
2017-09-26 04:11:00,75.8,68.0,29.82,SSE,149,6.0,-999.0,76,-99.99,,,0.00,weatherlink.com 1.10,2017-09-26 09:11:00,
2017-09-26 04:26:00,75.7,68.0,29.83,SSE,151,6.0,-999.0,77,-99.99,,,0.00,weatherlink.com 1.10,2017-09-26 09:26:00,
2017-09-26 04:41:00,75.7,68.0,29.83,SSE,157,6.0,-999.0,77,-99.99,,,0.00,weatherlink.com 1.10,2017-09-26 09:41:00,
2017-09-26 04:57:00,75.5,68.0,29.83,SSE,150,7.0,-999.0,78,-99.99,,,0.00,weatherlink.com 1.10,2017-09-26 09:57:00,
2017-09-26 05:11:00,75.3,68.0,29.82,SE,146,8.0,-999.0,78,-99.99,,,0.00,weatherlink.com 1.10,2017-09-26 10:11:00,
2017-09-26 05:27:00,75.1,68.0,29.82,SE,146,7.0,-999.0,79,-99.99,,,0.00,weatherlink.com 1.10,2017-09-26 10:27:00,
2017-09-26 05:42:00,74.9,68.0,29.83,SE,138,6.0,-999.0,80,-99.99,,,0.00,weatherlink.com 1.10,2017-09-26 10:42:00,
2017-09-26 05:57:00,74.7,69.0,29.83,SE,140,5.0,-999.0,81,-99.99,,,0.00,weatherlink.com 1.10,2017-09-26 10:57:00,
2017-09-26 06:12:00,74.4,68.0,29.84,SE,140,7.0,-999.0,81,-99.99,,,0.00,weatherlink.com 1.10,2017-09-26 11:12:00,
2017-09-26 06:27:00,74.3,69.0,29.84,SE,134,6.0,-999.0,82,-99.99,,,0.00,weatherlink.com 1.10,2017-09-26 11:27:00,
2017-09-26 06:42:00,74.1,68.0,29.84,SSE,147,5.0,-999.0,82,-99.99,,,0.00,weatherlink.com 1.10,2017-09-26 11:42:00,
2017-09-26 06:57:00,74.1,69.0,29.84,SE,145,6.0,-999.0,83,-99.99,,,0.00,weatherlink.com 1.10,2017-09-26 11:57:00,
2017-09-26 07:12:00,73.9,69.0,29.84,SE,134,6.0,-999.0,83,-99.99,,,0.00,weatherlink.com 1.10,2017-09-26 12:12:00,
2017-09-26 07:27:00,73.8,68.0,29.85,SE,131,6.0,-999.0,83,-99.99,,,0.00,weatherlink.com 1.10,2017-09-26 12:27:00,
2017-09-26 07:42:00,73.6,69.0,29.85,SE,131,4.0,-999.0,84,-99.99,,,0.00,weatherlink.com 1.10,2017-09-26 12:42:00,
2017-09-26 07:57:00,73.7,69.0,29.86,ESE,123,4.0,-999.0,84,-99.99,,,0.00,weatherlink.com 1.10,2017-09-26 12:57:00,
2017-09-26 08:12:00,74.2,69.0,29.86,ESE,123,4.0,-999.0,84,-99.99,,,0.00,weatherlink.com 1.10,2017-09-26 13:12:00,
2017-09-26 08:27:00,74.8,69.0,29.86,SE,135,7.0,-999.0,83,-99.99,,,0.00,weatherlink.com 1.10,2017-09-26 13:27:00,
2017-09-26 08:42:00,75.1,70.0,29.86,SE,126,5.0,-999.0,83,-99.99,,,0.00,weatherlink.com 1.10,2017-09-26 13:42:00,
2017-09-26 08:57:00,75.1,69.0,29.87,SE,138,5.0,-999.0,82,-99.99,,,0.00,weatherlink.com 1.10,2017-09-26 13:57:00,
2017-09-26 09:12:00,76.0,70.0,29.87,SE,141,4.0,-999.0,82,-99.99,,,0.00,weatherlink.com 1.10,2017-09-26 14:12:00,
2017-09-26 09:27:00,77.7,71.0,29.87,SW,218,6.0,-999.0,81,-99.99,,,0.00,weatherlink.com 1.10,2017-09-26 14:27:00,
2017-09-26 09:42:00,79.5,72.0,29.88,SSW,203,3.0,-999.0,78,-99.99,,,0.00,weatherlink.com 1.10,2017-09-26 14:42:00,
2017-09-26 09:57:00,81.1,71.0,29.88,SW,227,4.0,-999.0,72,-99.99,,,0.00,weatherlink.com 1.10,2017-09-26 14:57:00,
2017-09-26 10:12:00,81.7,71.0,29.88,SSW,207,8.0,-999.0,70,-99.99,,,0.00,weatherlink.com 1.10,2017-09-26 15:12:00,
2017-09-26 10:27:00,82.7,71.0,29.88,SW,215,11.0,-999.0,68,-99.99,,,0.00,weatherlink.com 1.10,2017-09-26 15:27:00,
2017-09-26 10:42:00,82.5,71.0,29.88,SSW,192,7.0,-999.0,68,-99.99,,,0.00,weatherlink.com 1.10,2017-09-26 15:42:00,
2017-09-26 10:57:00,82.1,71.0,29.89,SSW,212,9.0,-999.0,69,-99.99,,,0.00,weatherlink.com 1.10,2017-09-26 15:57:00,
2017-09-26 11:12:00,82.5,70.0,29.88,SSW,212,7.0,-999.0,66,-99.99,,,0.00,weatherlink.com 1.10,2017-09-26 16:12:00,
2017-09-26 11:27:00,82.5,70.0,29.89,SW,222,7.0,-999.0,67,-99.99,,,0.00,weatherlink.com 1.10,2017-09-26 16:27:00,
2017-09-26 11:42:00,83.1,71.0,29.88,South,191,4.0,-999.0,67,-99.99,,,0.00,weatherlink.com 1.10,2017-09-26 16:42:00,
2017-09-26 12:27:00,83.2,70.0,29.88,SW,215,3.0,-999.0,65,-99.99,,,0.00,weatherlink.com 1.10,2017-09-26 17:27:00,
2017-09-26 12:42:00,83.6,71.0,29.87,West,264,1.0,-999.0,65,-99.99,,,0.00,weatherlink.com 1.10,2017-09-26 17:42:00,
2017-09-26 12:57:00,83.6,70.0,29.87,SSW,213,2.0,-999.0,64,-99.99,,,0.00,weatherlink.com 1.10,2017-09-26 17:57:00,
2017-09-26 13:12:00,84.4,70.0,29.86,SW,221,4.0,-999.0,63,-99.99,,,0.00,weatherlink.com 1.10,2017-09-26 18:12:00,
2017-09-26 13:27:00,84.4,69.0,29.86,SSW,200,7.0,-999.0,61,-99.99,,,0.00,weatherlink.com 1.10,2017-09-26 18:27:00,
2017-09-26 13:42:00,84.6,69.0,29.85,SSW,207,2.0,-999.0,60,-99.99,,,0.00,weatherlink.com 1.10,2017-09-26 18:42:00,
2017-09-26 13:57:00,85.5,69.0,29.84,NE,42,2.0,-999.0,58,-99.99,,,0.00,weatherlink.com 1.10,2017-09-26 18:57:00,
2017-09-26 14:12:00,85.8,69.0,29.84,NW,311,4.0,-999.0,57,-99.99,,,0.00,weatherlink.com 1.10,2017-09-26 19:12:00,
2017-09-26 14:27:00,86.6,69.0,29.83,WSW,257,3.0,-999.0,56,-99.99,,,0.00,weatherlink.com 1.10,2017-09-26 19:27:00,